Weather History for Benson, MN

Change the Weather History Date:

Tuesday, May 12, 2009

  Actual Average Record
Temperature  
Mean Temperature 60 °F -  
Max Temperature 69 °F 67 °F 88 °F (1958)
Min Temperature 50 °F 44 °F 23 °F (2013)
Degree Days  
Heating Degree Days 6    
Growing Degree Days 10 (Base 50)    
Moisture  
Dew Point 46 °F    
Average Humidity 59    
Maximum Humidity 72    
Minimum Humidity 49    
Precipitation  
Precipitation 0.00 in - - ()
Sea Level Pressure  
Sea Level Pressure 29.78 in    
Wind  
Wind Speed 16 mph (SSW)    
Max Wind Speed 32 mph    
Max Gust Speed 43 mph    
Visibility 10 miles    
Events Thunderstorm    
Averages and records for this station are not official NWS values.
T = Trace of Precipitation, MM = Missing Value Source: NWS Daily Summary

Daily Weather History Graph

Daily Weather History Graph

Search for Another Location

Airport:

Trip Planner

Search our weather history database for the weather conditions in past years. The results will help you decide how hot, cold, wet, or windy it might be!

Date:

Astronomy

May. 12, 2009 Rise Set
Actual Time 5:55 AM CDT 8:42 PM CDT
Civil Twilight 5:21 AM CDT 9:17 PM CDT
Nautical Twilight 4:38 AM CDT 10:00 PM CDT
Astronomical Twilight 3:48 AM CDT 10:51 PM CDT
Moon No Moon Rise 8:00 AM CDT (5/12)
Length of Visible Light 15h 55m
Length of Day
14h 47m
Waning Gibbous, 88% of the Moon is Illuminated
May 12
Waning Gibbous
May 17
Last Quarter
May 24
New
May 30
First Quarter
Jun 7
Full

Hourly Weather History & Observations

Time (CDT) Temp. Dew Point Humidity Pressure Visibility Wind Dir Wind Speed Gust Speed Precip Events Conditions
12:13 AM 51.8 °F 35.6 °F 54% 29.95 in 10.0 mi South 8.1 mph - N/A   Clear
12:33 AM 50.0 °F 35.6 °F 58% 29.94 in 10.0 mi South 8.1 mph - N/A   Clear
12:53 AM 51.8 °F 37.4 °F 58% 29.93 in 10.0 mi South 10.4 mph - N/A   Clear
1:13 AM 51.8 °F 37.4 °F 58% 29.93 in 10.0 mi South 9.2 mph - N/A   Clear
1:33 AM 51.8 °F 37.4 °F 58% 29.92 in 10.0 mi South 9.2 mph - N/A   Clear
1:53 AM 51.8 °F 37.4 °F 58% 29.92 in 10.0 mi South 8.1 mph - N/A   Clear
2:13 AM 51.8 °F 39.2 °F 62% 29.92 in 10.0 mi South 9.2 mph - N/A   Clear
2:33 AM 51.8 °F 39.2 °F 62% 29.91 in 10.0 mi South 11.5 mph - N/A   Clear
2:53 AM 51.8 °F 39.2 °F 62% 29.91 in 10.0 mi South 11.5 mph - N/A   Clear
3:13 AM 53.6 °F 41.0 °F 62% 29.91 in 10.0 mi South 11.5 mph - N/A   Mostly Cloudy
3:33 AM 53.6 °F 42.8 °F 67% 29.90 in 10.0 mi SSW 11.5 mph - N/A   Mostly Cloudy
3:53 AM 53.6 °F 42.8 °F 67% 29.90 in 10.0 mi South 12.7 mph - N/A   Overcast
4:13 AM 55.4 °F 42.8 °F 63% 29.90 in 10.0 mi South 12.7 mph - N/A   Mostly Cloudy
4:33 AM 53.6 °F 42.8 °F 67% 29.89 in 10.0 mi South 12.7 mph - N/A   Scattered Clouds
4:53 AM 53.6 °F 42.8 °F 67% 29.89 in 10.0 mi SSW 10.4 mph - N/A   Clear
5:13 AM 53.6 °F 42.8 °F 67% 29.89 in 10.0 mi South 13.8 mph 20.7 mph N/A   Clear
5:33 AM 53.6 °F 42.8 °F 67% 29.89 in 10.0 mi South 13.8 mph - N/A   Scattered Clouds
5:53 AM 53.6 °F 42.8 °F 67% 29.88 in 10.0 mi South 12.7 mph - N/A   Overcast
6:13 AM 53.6 °F 42.8 °F 67% 29.87 in 10.0 mi South 13.8 mph - N/A   Scattered Clouds
6:33 AM 53.6 °F 44.6 °F 72% 29.87 in 10.0 mi South 13.8 mph 19.6 mph N/A Thunderstorm Clear
6:53 AM 55.4 °F 44.6 °F 67% 29.86 in 10.0 mi South 15.0 mph 20.7 mph N/A   Clear
7:13 AM 55.4 °F 44.6 °F 67% 29.87 in 10.0 mi South 13.8 mph 20.7 mph N/A   Clear
7:33 AM 55.4 °F 44.6 °F 67% 29.87 in 10.0 mi South 13.8 mph 19.6 mph N/A   Clear
7:53 AM 55.4 °F 44.6 °F 67% 29.86 in 10.0 mi South 12.7 mph - N/A   Clear
8:33 AM 59.0 °F 46.4 °F 63% 29.85 in 10.0 mi South 17.3 mph 26.5 mph N/A   Clear
8:53 AM 60.8 °F 48.2 °F 63% 29.85 in 10.0 mi SSW 18.4 mph - N/A   Scattered Clouds
9:13 AM 62.6 °F 48.2 °F 59% 29.85 in 10.0 mi SSW 17.3 mph 27.6 mph N/A   Overcast
9:33 AM 62.6 °F 48.2 °F 59% 29.85 in 10.0 mi SSW 20.7 mph - N/A   Overcast
9:53 AM 62.6 °F 48.2 °F 59% 29.84 in 10.0 mi SSW 21.9 mph 26.5 mph N/A   Mostly Cloudy
10:13 AM 62.6 °F 48.2 °F 59% 29.82 in 10.0 mi SSW 21.9 mph 27.6 mph N/A   Mostly Cloudy
10:33 AM 62.6 °F 48.2 °F 59% 29.81 in 10.0 mi SSW 21.9 mph 27.6 mph N/A   Overcast
10:53 AM 62.6 °F 48.2 °F 59% 29.80 in 10.0 mi SSW 20.7 mph 26.5 mph N/A   Overcast
11:13 AM 62.6 °F 48.2 °F 59% 29.79 in 10.0 mi SSW 17.3 mph 24.2 mph N/A   Overcast
11:33 AM 64.4 °F 48.2 °F 56% 29.77 in 10.0 mi SSW 20.7 mph 26.5 mph N/A   Overcast
11:53 AM 64.4 °F 48.2 °F 56% 29.76 in 10.0 mi SSW 24.2 mph 33.4 mph N/A   Overcast
12:13 PM 66.2 °F 50.0 °F 56% 29.73 in 10.0 mi SSW 26.5 mph 34.5 mph N/A   Overcast
12:33 PM 66.2 °F 50.0 °F 56% 29.72 in 10.0 mi SSW 29.9 mph 42.6 mph N/A   Overcast
12:53 PM 66.2 °F 50.0 °F 56% 29.71 in 10.0 mi SSW 25.3 mph 40.3 mph N/A   Overcast
1:13 PM 68.0 °F 50.0 °F 52% 29.68 in 10.0 mi South 32.2 mph 39.1 mph N/A   Mostly Cloudy
1:33 PM 69.8 °F 50.0 °F 49% 29.68 in 10.0 mi SSW 28.8 mph 38.0 mph N/A   Mostly Cloudy
1:53 PM 68.0 °F 50.0 °F 52% 29.67 in 10.0 mi SSW 23.0 mph 35.7 mph N/A   Mostly Cloudy
2:13 PM 68.0 °F 50.0 °F 52% 29.66 in 10.0 mi SSW 31.1 mph 34.5 mph N/A   Overcast
2:33 PM 69.8 °F 50.0 °F 49% 29.66 in 4.0 mi SSW 31.1 mph 40.3 mph N/A   Haze
2:53 PM 69.8 °F 50.0 °F 49% 29.65 in 7.0 mi SSW 28.8 mph 35.7 mph N/A   Scattered Clouds
3:13 PM 69.8 °F 50.0 °F 49% 29.65 in 10.0 mi SSW 29.9 mph 40.3 mph N/A   Mostly Cloudy
3:33 PM 69.8 °F 50.0 °F 49% 29.63 in 7.0 mi SSW 28.8 mph 34.5 mph N/A   Mostly Cloudy
3:53 PM 68.0 °F 50.0 °F 52% 29.63 in 10.0 mi SSW 21.9 mph 35.7 mph N/A   Overcast
4:13 PM 69.8 °F 51.8 °F 53% 29.61 in 7.0 mi SSW 27.6 mph 34.5 mph N/A   Overcast
4:33 PM 69.8 °F 51.8 °F 53% 29.60 in 5.0 mi SSW 26.5 mph 40.3 mph N/A   Haze
4:53 PM 69.8 °F 51.8 °F 53% 29.58 in 10.0 mi SSW 24.2 mph 36.8 mph N/A   Overcast
5:13 PM 69.8 °F 50.0 °F 49% 29.58 in 10.0 mi SSW 26.5 mph 36.8 mph N/A   Overcast
5:33 PM 69.8 °F 50.0 °F 49% 29.57 in 10.0 mi SSW 29.9 mph 35.7 mph N/A   Overcast
5:53 PM 69.8 °F 50.0 °F 49% 29.57 in 10.0 mi SSW 24.2 mph 35.7 mph N/A   Overcast
6:13 PM 68.0 °F 51.8 °F 56% 29.56 in 10.0 mi SSW 29.9 mph 40.3 mph N/A   Overcast
6:33 PM 68.0 °F 51.8 °F 56% 29.56 in 7.0 mi SSW 26.5 mph 35.7 mph N/A   Overcast
6:53 PM 66.2 °F 53.6 °F 64% 29.57 in 5.0 mi SW 29.9 mph 42.6 mph N/A   Haze
7:13 PM 66.2 °F 53.6 °F 64% 29.58 in 7.0 mi SW 28.8 mph 35.7 mph N/A   Overcast
7:33 PM 64.4 °F 53.6 °F 68% 29.57 in 10.0 mi SSW 26.5 mph 32.2 mph N/A   Overcast
7:53 PM 64.4 °F 51.8 °F 64% 29.57 in 10.0 mi SSW 20.7 mph 29.9 mph N/A   Overcast
8:13 PM 64.4 °F 51.8 °F 64% 29.55 in 10.0 mi SSW 23.0 mph 27.6 mph N/A   Overcast
8:33 PM 64.4 °F 51.8 °F 64% 29.55 in 10.0 mi SSW 23.0 mph 31.1 mph N/A   Overcast
8:53 PM 62.6 °F 51.8 °F 68% 29.55 in 10.0 mi SSW 25.3 mph 32.2 mph N/A   Overcast
9:13 PM 62.6 °F 51.8 °F 68% 29.55 in 10.0 mi SSW 20.7 mph 32.2 mph N/A   Overcast
9:33 PM 62.6 °F 53.6 °F 72% 29.54 in 10.0 mi SSW 25.3 mph 33.4 mph N/A   Overcast
9:53 PM 62.6 °F 53.6 °F 72% 29.54 in 10.0 mi South 18.4 mph 29.9 mph N/A   Overcast
10:13 PM 60.8 °F 53.6 °F 77% 29.52 in 10.0 mi South 21.9 mph 25.3 mph N/A   Overcast
10:33 PM 60.8 °F 53.6 °F 77% 29.55 in 10.0 mi SSW 20.7 mph 28.8 mph N/A   Overcast
10:53 PM 60.8 °F 53.6 °F 77% 29.55 in 10.0 mi SSW 24.2 mph 29.9 mph N/A   Overcast
11:13 PM 60.8 °F 55.4 °F 82% 29.58 in 10.0 mi SSW 21.9 mph 28.8 mph N/A   Overcast
11:33 PM 60.8 °F 55.4 °F 82% 29.56 in 10.0 mi SSW 17.3 mph 25.3 mph N/A   Overcast
11:53 PM 60.8 °F 55.4 °F 82% 29.56 in 10.0 mi SSW 16.1 mph - N/A   Overcast